Date,TemperatureHighF,TemperatureAvgF,TemperatureLowF,DewpointHighF,DewpointAvgF,DewpointLowF,HumidityHigh,HumidityAvg,HumidityLow,PressureMaxIn,PressureMinIn,WindSpeedMaxMPH,WindSpeedAvgMPH,GustSpeedMaxMPH,PrecipitationSumIn
2013-5-1,72.5,53.9,34.9,42.5,31.6,23.2,95,51,17,30.47,30.37,8,1,8,0.00
2013-5-2,81.7,55.4,38.8,47.1,38.4,29.7,98,60,16,30.50,30.35,11,1,11,0.00
2013-5-3,64.6,49.6,38.1,45.2,40.6,37.0,99,74,46,30.53,30.38,11,2,11,0.00
2013-5-4,63.1,48.3,35.4,46.5,38.9,34.6,99,74,41,30.38,30.30,13,2,13,0.00
2013-5-5,63.3,46.8,32.7,43.4,37.8,32.5,99,75,41,30.34,30.24,8,1,8,0.00
2013-5-6,75.2,51.3,33.6,50.4,43.0,33.4,99,78,28,30.29,30.14,8,1,11,0.00
2013-5-7,80.6,61.4,42.4,59.0,51.6,42.2,99,74,40,30.18,30.08,6,1,8,0.00
2013-5-8,75.0,62.4,50.9,64.3,58.8,50.6,99,89,63,30.19,30.04,9,1,12,0.12
2013-5-9,68.9,59.9,56.3,64.9,59.1,56.0,99,97,77,30.04,29.88,4,0,4,0.33
2013-5-10,82.0,65.3,53.2,64.0,57.6,52.2,99,80,38,29.95,29.88,6,1,6,0.08
2013-5-11,70.5,63.5,58.3,63.9,60.3,55.6,99,90,75,29.91,29.68,13,1,13,0.02
2013-5-12,72.3,61.0,48.7,62.0,52.3,29.9,99,76,40,29.81,29.55,12,1,13,0.01
2013-5-13,61.9,48.9,39.0,35.4,30.9,24.4,83,53,24,30.03,29.80,13,2,14,0.00
2013-5-14,62.6,47.9,34.0,38.0,31.6,25.1,95,58,26,30.05,29.96,11,2,11,0.00
2013-5-15,68.9,49.7,33.6,52.8,40.2,29.6,99,75,27,30.05,29.66,10,1,13,0.02
2013-5-16,84.6,65.7,47.1,55.3,39.7,24.6,99,52,12,29.80,29.62,13,2,14,0.00
2013-5-17,70.9,58.9,48.4,45.0,41.6,34.9,86,55,29,30.21,29.80,11,2,16,0.00
2013-5-18,76.1,58.1,41.4,50.3,43.7,33.4,99,65,21,30.31,30.21,5,1,9,0.00
2013-5-19,74.1,56.6,45.9,56.0,51.0,45.3,99,84,42,30.35,30.22,8,1,8,0.09
2013-5-20,84.0,67.6,55.2,68.7,61.7,55.0,99,84,50,30.22,29.90,7,1,7,0.04
2013-5-21,86.9,62.8,51.1,70.6,59.0,50.8,99,89,56,30.01,29.85,5,1,10,0.00
2013-5-22,70.3,56.6,50.0,65.3,55.1,49.7,99,95,78,30.06,29.88,8,1,8,0.18
2013-5-23,77.4,64.2,53.8,73.2,62.3,53.5,99,94,80,29.93,29.80,8,1,9,0.01
2013-5-24,72.1,62.6,48.4,69.7,62.0,48.1,99,98,84,29.82,29.65,10,1,11,0.01
2013-5-25,50.9,46.7,40.6,50.6,46.4,40.4,99,99,99,29.81,29.70,11,3,16,0.00
2013-5-26,59.2,47.8,39.0,46.0,40.9,38.6,99,79,49,30.10,29.71,13,3,17,0.05
2013-5-27,75.4,56.3,38.3,47.9,39.4,27.7,99,62,18,30.17,30.06,8,2,13,0.00
2013-5-28,77.9,58.3,40.1,53.9,46.5,38.3,99,71,25,30.24,30.14,4,0,6,0.00
2013-5-29,70.0,62.2,56.7,67.6,61.2,53.8,99,96,87,30.18,29.98,4,0,5,1.12
2013-5-30,90.0,73.6,60.6,73.7,66.9,60.4,99,83,49,30.08,29.99,6,1,7,0.00
2013-5-31,97.0,78.8,62.6,75.3,66.5,60.9,99,71,31,30.09,29.91,6,1,8,0.00